,,Stat6,,Stat2,,Stat8,,Stat9,,Stat10,,Wind1,,Wind1,
time,status,PA1M_AVG,status,PR1M_SUM,status,RH1M_AVG,status,SR1M_AVG,status,TA1M_AVG,status,W1dAve1m,status,W1sAve1m,
2005-06-14, 00:00:00,VALID,918.025,VALID,0,VALID,97.8042,VALID,-0.101885,VALID,19.7991,VALID,76,VALID,0.556771,
2005-06-14, 00:01:00,VALID,918.019,VALID,0,VALID,97.6389,VALID,-0.0679233,VALID,19.779,VALID,76,VALID,0.539418,
2005-06-14, 00:02:00,VALID,918.012,VALID,0,VALID,97.588,VALID,-0.0509425,VALID,19.7594,VALID,76,VALID,0.442835,
2005-06-14, 00:03:00,VALID,918.011,VALID,0,VALID,97.691,VALID,-0.0339617,VALID,19.7561,VALID,76,VALID,0.452919,
2005-06-14, 00:04:00,VALID,918.013,VALID,0,VALID,97.8716,VALID,-0.0509425,VALID,19.7598,VALID,76,VALID,0.242006,
2005-06-14, 00:05:00,VALID,918.024,VALID,0,VALID,98.0992,VALID,-0.0509425,VALID,19.7596,VALID,76,VALID,0.198038,
2005-06-14, 00:06:00,VALID,918.007,VALID,0,VALID,98.1691,VALID,-0.0339617,VALID,19.7596,VALID,76,VALID,0.00545058,
2005-06-14, 00:07:00,VALID,918.011,VALID,0,VALID,98.2607,VALID,-0.0169808,VALID,19.7432,VALID,76,VALID,0.0158067,
2005-06-14, 00:08:00,VALID,918,VALID,0,VALID,97.9949,VALID,-0.0849042,VALID,19.7179,VALID,20,VALID,0.582442,
2005-06-14, 00:09:00,VALID,917.989,VALID,0,VALID,98.1793,VALID,-0.0849042,VALID,19.6955,VALID,312,VALID,0.868521,
2005-06-14, 00:10:00,VALID,917.994,VALID,0,VALID,98.323,VALID,-0.0849042,VALID,19.6824,VALID,312,VALID,0.666193,
2005-06-14, 00:11:00,VALID,917.976,VALID,0,VALID,98.3167,VALID,-0.0849042,VALID,19.6824,VALID,312,VALID,0.094494,
2005-06-14, 00:12:00,VALID,917.969,VALID,0,VALID,98.3472,VALID,-0.0679233,VALID,19.692,VALID,312,VALID,0.0894326,
2005-06-14, 00:13:00,VALID,917.963,VALID,0,VALID,98.2747,VALID,-0.0849042,VALID,19.6953,VALID,312,VALID,0,
2005-06-14, 00:14:00,VALID,917.971,VALID,0,VALID,98.3268,VALID,-0.0679233,VALID,19.6987,VALID,303,VALID,0.548478,
2005-06-14, 00:15:00,VALID,917.945,VALID,0,VALID,98.4616,VALID,0,VALID,19.7045,VALID,266,VALID,0.832031,
2005-06-14, 00:16:00,VALID,917.957,VALID,0,VALID,98.88,VALID,-0.0169808,VALID,19.7174,VALID,262,VALID,0.708507,
2005-06-14, 00:17:00,VALID,917.956,VALID,0,VALID,99.0847,VALID,0,VALID,19.7141,VALID,262,VALID,0.581745,
2005-06-14, 00:18:00,VALID,917.955,VALID,0,VALID,99.3187,VALID,-0.0339617,VALID,19.7273,VALID,262,VALID,0.485102,
2005-06-14, 00:19:00,VALID,917.961,VALID,0,VALID,99.4153,VALID,-0.0339617,VALID,19.7141,VALID,262,VALID,0.170201,
2005-06-14, 00:20:00,VALID,917.954,VALID,0,VALID,99.3937,VALID,-0.0339617,VALID,19.6886,VALID,262,VALID,0.00944767,
2005-06-14, 00:21:00,VALID,917.952,VALID,0,VALID,99.5501,VALID,-0.0169808,VALID,19.6878,VALID,262,VALID,0,
2005-06-14, 00:22:00,VALID,917.954,VALID,0,VALID,99.6544,VALID,-0.0339617,VALID,19.7015,VALID,262,VALID,0.225074,
2005-06-14, 00:23:00,VALID,917.956,VALID,0,VALID,99.6633,VALID,-0.0339617,VALID,19.7112,VALID,305,VALID,0.558854,
2005-06-14, 00:24:00,VALID,917.966,VALID,0,VALID,99.8108,VALID,-0.0679233,VALID,19.7146,VALID,342,VALID,0.709032,
2005-06-14, 00:25:00,VALID,917.969,VALID,0,VALID,99.9914,VALID,-0.0169808,VALID,19.7209,VALID,351,VALID,0.573611,
2005-06-14, 00:26:00,VALID,917.969,VALID,0,VALID,100,VALID,-0.0849042,VALID,19.744,VALID,351,VALID,0.310122,
2005-06-14, 00:27:00,VALID,917.966,VALID,0,VALID,100,VALID,-0.0339617,VALID,19.7472,VALID,351,VALID,0.287427,
2005-06-14, 00:28:00,VALID,917.979,VALID,0,VALID,100,VALID,-0.0509425,VALID,19.7499,VALID,351,VALID,0.43821,
2005-06-14, 00:29:00,VALID,917.982,VALID,0,VALID,100,VALID,-0.0509425,VALID,19.7338,VALID,351,VALID,0.483445,
2005-06-14, 00:30:00,VALID,917.99,VALID,0,VALID,100,VALID,-0.0849042,VALID,19.7305,VALID,352,VALID,0.584847,
2005-06-14, 00:31:00,VALID,917.992,VALID,0,VALID,100,VALID,0.0169808,VALID,19.7233,VALID,352,VALID,0.412202,
2005-06-14, 00:32:00,VALID,918.008,VALID,0,VALID,100,VALID,0.0679233,VALID,19.7164,VALID,352,VALID,0.368253,
2005-06-14, 00:33:00,VALID,918.003,VALID,0,VALID,100,VALID,0.0169808,VALID,19.704,VALID,352,VALID,0.396913,
2005-06-14, 00:34:00,VALID,918,VALID,0,VALID,100,VALID,0.0169808,VALID,19.6811,VALID,352,VALID,0.402253,
2005-06-14, 00:35:00,VALID,917.998,VALID,0,VALID,100,VALID,0.0339617,VALID,19.6779,VALID,352,VALID,0.465732,
2005-06-14, 00:36:00,VALID,917.996,VALID,0,VALID,100,VALID,0.0679233,VALID,19.6908,VALID,352,VALID,0.50372,
2005-06-14, 00:37:00,VALID,917.988,VALID,0,VALID,100,VALID,0.0169808,VALID,19.6814,VALID,334,VALID,0.671528,
2005-06-14, 00:38:00,VALID,917.973,VALID,0,VALID,100,VALID,0.0509425,VALID,19.6975,VALID,343,VALID,0.528646,
2005-06-14, 00:39:00,VALID,917.972,VALID,0,VALID,100,VALID,0.0679233,VALID,19.6908,VALID,350,VALID,0.815168,
2005-06-14, 00:40:00,VALID,917.964,VALID,0,VALID,100,VALID,0.0339617,VALID,19.6583,VALID,339,VALID,0.60032,
2005-06-14, 00:41:00,VALID,917.947,VALID,0,VALID,100,VALID,0.0339617,VALID,19.6518,VALID,339,VALID,0.724746,
2005-06-14, 00:42:00,VALID,917.921,VALID,0,VALID,100,VALID,0.0169808,VALID,19.6491,VALID,340,VALID,0.437309,
2005-06-14, 00:43:00,VALID,917.917,VALID,0,VALID,100,VALID,0,VALID,19.6354,VALID,342,VALID,0.500381,
2005-06-14, 00:44:00,VALID,917.923,VALID,0,VALID,100,VALID,0.0169808,VALID,19.6362,VALID,348,VALID,0.734561,
2005-06-14, 00:45:00,VALID,917.899,VALID,0,VALID,100,VALID,0.0169808,VALID,19.626,VALID,354,VALID,0.478609,
2005-06-14, 00:46:00,VALID,917.9,VALID,0,VALID,100,VALID,-0.0509425,VALID,19.6039,VALID,3,VALID,0.40811,
2005-06-14, 00:47:00,VALID,917.909,VALID,0,VALID,100,VALID,-0.101885,VALID,19.5922,VALID,335,VALID,0.604759,
2005-06-14, 00:48:00,VALID,917.891,VALID,0,VALID,100,VALID,-0.0849042,VALID,19.5954,VALID,331,VALID,0.376302,
2005-06-14, 00:49:00,VALID,917.884,VALID,0,VALID,100,VALID,-0.0339617,VALID,19.5957,VALID,340,VALID,0.733613,
2005-06-14, 00:50:00,VALID,917.862,VALID,0,VALID,100,VALID,-0.0339617,VALID,19.5793,VALID,329,VALID,0.65574,
2005-06-14, 00:51:00,VALID,917.849,VALID,0,VALID,100,VALID,-0.0169808,VALID,19.5592,VALID,320,VALID,0.3625,
2005-06-14, 00:52:00,VALID,917.832,VALID,0,VALID,100,VALID,-0.0339617,VALID,19.5569,VALID,320,VALID,0.916406,
2005-06-14, 00:53:00,VALID,917.81,VALID,0,VALID,100,VALID,-0.0679233,VALID,19.5341,VALID,326,VALID,0.561198,
2005-06-14, 00:54:00,VALID,917.802,VALID,0,VALID,100,VALID,-0.0169808,VALID,19.5338,VALID,327,VALID,0.417882,
2005-06-14, 00:55:00,VALID,917.78,VALID,0,VALID,100,VALID,-0.0509425,VALID,19.5467,VALID,328,VALID,0.45476,
2005-06-14, 00:56:00,VALID,917.765,VALID,0,VALID,100,VALID,-0.0679233,VALID,19.5534,VALID,329,VALID,0.702626,
2005-06-14, 00:57:00,VALID,917.743,VALID,0,VALID,100,VALID,-0.0679233,VALID,19.5336,VALID,344,VALID,0.389931,
2005-06-14, 00:58:00,VALID,917.724,VALID,0,VALID,100,VALID,-0.0679233,VALID,19.547,VALID,347,VALID,0.491279,
2005-06-14, 00:59:00,VALID,917.707,VALID,0,VALID,100,VALID,-0.0509425,VALID,19.5529,VALID,10,VALID,0.999306,
2005-06-14, 01:00:00,VALID,917.713,VALID,0,VALID,100,VALID,-0.0339617,VALID,19.5204,VALID,7,VALID,0.755859,
2005-06-14, 01:01:00,VALID,917.702,VALID,0,VALID,100,VALID,0,VALID,19.5097,VALID,2,VALID,0.674162,
2005-06-14, 01:02:00,VALID,917.714,VALID,0,VALID,100,VALID,0.0509425,VALID,19.5097,VALID,360,VALID,0.526811,
2005-06-14, 01:03:01,VALID,917.719,VALID,0,VALID,100,VALID,0.0679233,VALID,19.4837,VALID,360,VALID,0.736979,
2005-06-14, 01:04:00,VALID,917.713,VALID,0,VALID,100,VALID,0.0509425,VALID,19.4673,VALID,18,VALID,0.93892,
2005-06-14, 01:05:00,VALID,917.693,VALID,0.2,VALID,100,VALID,0.0849042,VALID,19.4708,VALID,24,VALID,0.755145,
2005-06-14, 01:06:00,VALID,917.696,VALID,0,VALID,100,VALID,0.0679233,VALID,19.4745,VALID,25,VALID,0.801448,
2005-06-14, 01:07:01,VALID,917.686,VALID,0,VALID,100,VALID,0.0679233,VALID,19.4712,VALID,31,VALID,0.976563,
2005-06-14, 01:08:00,VALID,917.689,VALID,0,VALID,100,VALID,0.0849042,VALID,19.4578,VALID,29,VALID,0.936942,
2005-06-14, 01:09:00,VALID,917.662,VALID,0,VALID,100,VALID,0.0679233,VALID,19.4514,VALID,31,VALID,1.10465,
2005-06-14, 01:10:01,VALID,917.654,VALID,0,VALID,100,VALID,0.0339617,VALID,19.4519,VALID,26,VALID,0.904492,
2005-06-14, 01:11:00,VALID,917.645,VALID,0,VALID,100,VALID,-0.0169808,VALID,19.4531,VALID,22,VALID,0.77397,
2005-06-14, 01:12:00,VALID,917.63,VALID,0,VALID,100,VALID,-0.0679233,VALID,19.4596,VALID,24,VALID,0.672619,
2005-06-14, 01:13:01,VALID,917.621,VALID,0,VALID,99.8146,VALID,-0.0169808,VALID,19.4461,VALID,24,VALID,0.717507,
2005-06-14, 01:14:00,VALID,917.611,VALID,0,VALID,99.6455,VALID,-0.0169808,VALID,19.4529,VALID,24,VALID,0.584985,
2005-06-14, 01:15:00,VALID,917.597,VALID,0,VALID,99.5412,VALID,-0.0339617,VALID,19.4794,VALID,24,VALID,0.702276,
2005-06-14, 01:16:00,VALID,917.587,VALID,0,VALID,99.5234,VALID,0.0169808,VALID,19.4546,VALID,24,VALID,0.418445,
2005-06-14, 01:17:00,VALID,917.577,VALID,0,VALID,99.615,VALID,0.0849042,VALID,19.4708,VALID,24,VALID,0.248047,
2005-06-14, 01:18:01,VALID,917.564,VALID,0,VALID,99.7396,VALID,0.101885,VALID,19.4901,VALID,24,VALID,0.289993,
2005-06-14, 01:19:00,VALID,917.521,VALID,0,VALID,99.7167,VALID,0.0339617,VALID,19.5065,VALID,24,VALID,0.595881,
2005-06-14, 01:20:00,VALID,917.516,VALID,0,VALID,99.3835,VALID,0.0169808,VALID,19.4643,VALID,24,VALID,0.748935,
2005-06-14, 01:21:00,VALID,917.474,VALID,0,VALID,99.03,VALID,0.0679233,VALID,19.4417,VALID,24,VALID,0.481712,
2005-06-14, 01:22:00,VALID,917.452,VALID,0,VALID,99.0249,VALID,0.0169808,VALID,19.4648,VALID,24,VALID,0.171113,
2005-06-14, 01:23:01,VALID,917.44,VALID,0,VALID,98.9359,VALID,0.0339617,VALID,19.4717,VALID,24,VALID,0.0855564,
2005-06-14, 01:24:01,VALID,917.417,VALID,0,VALID,98.9537,VALID,0.0679233,VALID,19.4611,VALID,24,VALID,0.34718,
2005-06-14, 01:25:00,VALID,917.405,VALID,0,VALID,98.9512,VALID,0.0679233,VALID,19.4678,VALID,24,VALID,0.528088,
2005-06-14, 01:26:00,VALID,917.392,VALID,0,VALID,98.6231,VALID,0.0849042,VALID,19.4581,VALID,12,VALID,0.939631,
2005-06-14, 01:27:01,VALID,917.392,VALID,0,VALID,98.4069,VALID,0.0679233,VALID,19.4648,VALID,3,VALID,0.688902,
2005-06-14, 01:28:01,VALID,917.375,VALID,0.2,VALID,97.9848,VALID,0.0509425,VALID,19.4616,VALID,358,VALID,0.698103,
2005-06-14, 01:29:00,VALID,917.359,VALID,0,VALID,97.7368,VALID,0.0339617,VALID,19.4814,VALID,358,VALID,0.61059,
2005-06-14, 01:30:01,VALID,917.341,VALID,0,VALID,97.5626,VALID,0,VALID,19.4844,VALID,352,VALID,0.704055,
2005-06-14, 01:31:00,VALID,917.345,VALID,0,VALID,97.466,VALID,-0.0509425,VALID,19.4951,VALID,351,VALID,0.705163,
2005-06-14, 01:32:01,VALID,917.326,VALID,0,VALID,97.3896,VALID,-0.0509425,VALID,19.5023,VALID,330,VALID,0.788867,
2005-06-14, 01:33:00,VALID,917.304,VALID,0,VALID,97.3388,VALID,-0.0509425,VALID,19.5279,VALID,328,VALID,0.804324,
2005-06-14, 01:34:00,VALID,917.285,VALID,0,VALID,97.4087,VALID,-0.0849042,VALID,19.5405,VALID,337,VALID,0.518714,
2005-06-14, 01:35:00,VALID,917.268,VALID,0,VALID,97.1875,VALID,-0.0849042,VALID,19.5445,VALID,333,VALID,0.659268,
2005-06-14, 01:36:00,VALID,917.253,VALID,0,VALID,97.2688,VALID,-0.101885,VALID,19.5375,VALID,315,VALID,0.561357,
2005-06-14, 01:37:00,VALID,917.232,VALID,0,VALID,97.2472,VALID,-0.0849042,VALID,19.5281,VALID,314,VALID,0.582292,
2005-06-14, 01:38:00,VALID,917.216,VALID,0,VALID,97.2243,VALID,-0.0339617,VALID,19.547,VALID,339,VALID,0.6,
2005-06-14, 01:39:00,VALID,917.194,VALID,0,VALID,97.4036,VALID,-0.0679233,VALID,19.5604,VALID,339,VALID,0.479048,
2005-06-14, 01:40:01,VALID,917.176,VALID,0,VALID,97.4647,VALID,-0.0339617,VALID,19.5472,VALID,340,VALID,0.496548,
2005-06-14, 01:41:00,VALID,917.187,VALID,0,VALID,97.4914,VALID,-0.0509425,VALID,19.547,VALID,340,VALID,0.329942,
2005-06-14, 01:42:00,VALID,917.18,VALID,0,VALID,97.6796,VALID,-0.0509425,VALID,19.5375,VALID,340,VALID,0.156064,
2005-06-14, 01:43:01,VALID,917.165,VALID,0,VALID,97.7571,VALID,-0.0849042,VALID,19.5308,VALID,340,VALID,0.000190549,
2005-06-14, 01:44:01,VALID,917.154,VALID,0,VALID,97.7571,VALID,-0.0509425,VALID,19.5214,VALID,340,VALID,0.0528706,
2005-06-14, 01:45:01,VALID,917.156,VALID,0,VALID,97.9212,VALID,-0.0849042,VALID,19.5184,VALID,340,VALID,0,
2005-06-14, 01:46:00,VALID,917.136,VALID,0,VALID,97.9746,VALID,-0.0509425,VALID,19.4889,VALID,340,VALID,0.283482,
2005-06-14, 01:47:00,VALID,917.126,VALID,0,VALID,98.0369,VALID,-0.0509425,VALID,19.4563,VALID,343,VALID,0.582698,
2005-06-14, 01:48:00,VALID,917.101,VALID,0,VALID,98.028,VALID,-0.0509425,VALID,19.437,VALID,360,VALID,0.612537,
2005-06-14, 01:49:01,VALID,917.08,VALID,0,VALID,97.9555,VALID,-0.0509425,VALID,19.3977,VALID,17,VALID,0.644804,
2005-06-14, 01:50:00,VALID,917.064,VALID,0,VALID,97.967,VALID,0,VALID,19.3947,VALID,44,VALID,0.813565,
2005-06-14, 01:51:00,VALID,917.044,VALID,0,VALID,97.953,VALID,0,VALID,19.3818,VALID,44,VALID,0.676339,
2005-06-14, 01:52:00,VALID,917.029,VALID,0,VALID,97.9428,VALID,-0.0509425,VALID,19.3724,VALID,43,VALID,0.787427,
2005-06-14, 01:53:00,VALID,917.009,VALID,0,VALID,97.9263,VALID,-0.0849042,VALID,19.3791,VALID,39,VALID,0.711523,
2005-06-14, 01:54:00,VALID,916.983,VALID,0,VALID,97.8779,VALID,-0.0509425,VALID,19.3791,VALID,39,VALID,0.632631,
2005-06-14, 01:55:01,VALID,916.965,VALID,0,VALID,97.8589,VALID,0,VALID,19.3821,VALID,39,VALID,0.533333,
2005-06-14, 01:56:01,VALID,916.944,VALID,0,VALID,97.8169,VALID,-0.0169808,VALID,19.3751,VALID,39,VALID,0.697493,
2005-06-14, 01:57:00,VALID,916.93,VALID,0,VALID,97.9288,VALID,-0.0339617,VALID,19.3721,VALID,39,VALID,0.61441,
2005-06-14, 01:58:00,VALID,916.925,VALID,0,VALID,97.9631,VALID,0,VALID,19.3659,VALID,39,VALID,0.641533,
2005-06-14, 01:59:01,VALID,916.899,VALID,0,VALID,97.9987,VALID,-0.0339617,VALID,19.3493,VALID,39,VALID,0.678544,
2005-06-14, 02:00:01,VALID,916.894,VALID,0,VALID,98.0839,VALID,-0.0339617,VALID,19.3431,VALID,39,VALID,0.278711,
2005-06-14, 02:01:00,VALID,916.892,VALID,0,VALID,98.1183,VALID,-0.0339617,VALID,19.3272,VALID,39,VALID,0.110119,
2005-06-14, 02:02:00,VALID,916.888,VALID,0,VALID,98.159,VALID,-0.0509425,VALID,19.308,VALID,39,VALID,0.062686,
2005-06-14, 02:03:01,VALID,916.867,VALID,0,VALID,98.248,VALID,-0.0849042,VALID,19.2951,VALID,39,VALID,0,
2005-06-14, 02:04:00,VALID,916.844,VALID,0,VALID,98.2696,VALID,-0.0169808,VALID,19.2723,VALID,39,VALID,0,
2005-06-14, 02:05:01,VALID,916.821,VALID,0,VALID,98.3052,VALID,-0.0169808,VALID,19.2599,VALID,39,VALID,0,
2005-06-14, 02:06:01,VALID,916.799,VALID,0,VALID,98.4438,VALID,-0.0169808,VALID,19.237,VALID,39,VALID,0.250744,
2005-06-14, 02:07:01,VALID,916.785,VALID,0,VALID,98.4095,VALID,-0.0169808,VALID,19.2174,VALID,39,VALID,0.3123,
2005-06-14, 02:08:01,VALID,916.751,VALID,0,VALID,98.365,VALID,0,VALID,19.1886,VALID,39,VALID,0.542878,
2005-06-14, 02:09:01,VALID,916.745,VALID,0,VALID,98.5112,VALID,-0.0169808,VALID,19.1561,VALID,39,VALID,0.48819,
2005-06-14, 02:10:01,VALID,916.724,VALID,0,VALID,98.5748,VALID,-0.0509425,VALID,19.124,VALID,39,VALID,0.639509,
2005-06-14, 02:11:00,VALID,916.722,VALID,0,VALID,98.6841,VALID,-0.0509425,VALID,19.0786,VALID,39,VALID,0.573661,
2005-06-14, 02:12:00,VALID,916.716,VALID,0,VALID,98.8164,VALID,0,VALID,19.0396,VALID,39,VALID,0.490799,
2005-06-14, 02:13:01,VALID,916.72,VALID,0,VALID,99.0415,VALID,-0.0339617,VALID,19.0276,VALID,39,VALID,0.563988,
2005-06-14, 02:14:00,VALID,916.691,VALID,0,VALID,99.3212,VALID,-0.0339617,VALID,19.0207,VALID,39,VALID,0.577744,
2005-06-14, 02:15:00,VALID,916.682,VALID,0,VALID,99.4764,VALID,0,VALID,19.0368,VALID,33,VALID,0.552557,
2005-06-14, 02:16:00,VALID,916.649,VALID,0,VALID,99.5272,VALID,-0.0509425,VALID,19.0468,VALID,20,VALID,0.511052,
2005-06-14, 02:17:00,VALID,916.622,VALID,0,VALID,99.5933,VALID,-0.0509425,VALID,19.0602,VALID,20,VALID,0.515262,
2005-06-14, 02:18:00,VALID,916.605,VALID,0,VALID,99.5259,VALID,-0.0679233,VALID,19.0468,VALID,20,VALID,0.468564,
2005-06-14, 02:19:01,VALID,916.598,VALID,0,VALID,99.5221,VALID,-0.0679233,VALID,19.0406,VALID,20,VALID,0.50279,
2005-06-14, 02:20:00,VALID,916.587,VALID,0,VALID,99.6111,VALID,-0.0509425,VALID,19.0309,VALID,20,VALID,0.531059,
2005-06-14, 02:21:00,VALID,916.58,VALID,0,VALID,99.6544,VALID,-0.0679233,VALID,19.0083,VALID,20,VALID,0.232279,
2005-06-14, 02:22:01,VALID,916.572,VALID,0,VALID,99.7078,VALID,-0.0849042,VALID,19.0016,VALID,20,VALID,0.170603,
2005-06-14, 02:23:00,VALID,916.538,VALID,0,VALID,99.8438,VALID,-0.0509425,VALID,19.008,VALID,20,VALID,0.250694,
2005-06-14, 02:24:00,VALID,916.547,VALID,0,VALID,99.9606,VALID,-0.0509425,VALID,19.0177,VALID,20,VALID,0.34811,
2005-06-14, 02:25:01,VALID,916.551,VALID,0,VALID,99.999,VALID,-0.0679233,VALID,19.0209,VALID,20,VALID,0.371761,
2005-06-14, 02:26:00,VALID,916.54,VALID,0,VALID,100,VALID,-0.0509425,VALID,19.0371,VALID,20,VALID,0.156929,
2005-06-14, 02:27:00,VALID,916.536,VALID,0,VALID,100,VALID,-0.0849042,VALID,19.0306,VALID,20,VALID,0.176235,
2005-06-14, 02:28:01,VALID,916.523,VALID,0,VALID,99.999,VALID,-0.0509425,VALID,19.0373,VALID,20,VALID,0.244531,
2005-06-14, 02:29:01,VALID,916.496,VALID,0,VALID,99.929,VALID,-0.0679233,VALID,19.0177,VALID,20,VALID,0.581395,
2005-06-14, 02:30:00,VALID,916.48,VALID,0,VALID,99.9964,VALID,-0.0509425,VALID,19.0145,VALID,20,VALID,0.918945,
2005-06-14, 02:31:01,VALID,916.462,VALID,0,VALID,99.9952,VALID,-0.0339617,VALID,19.0145,VALID,20,VALID,0.689596,
2005-06-14, 02:32:00,VALID,916.443,VALID,0,VALID,99.9781,VALID,-0.0679233,VALID,19.0075,VALID,20,VALID,0.622093,
2005-06-14, 02:33:00,VALID,916.423,VALID,0,VALID,99.9557,VALID,-0.0509425,VALID,18.9983,VALID,20,VALID,0.42152,
2005-06-14, 02:34:01,VALID,916.416,VALID,0,VALID,99.9189,VALID,-0.0509425,VALID,18.9884,VALID,20,VALID,0.633662,
2005-06-14, 02:35:00,VALID,916.388,VALID,0,VALID,99.9468,VALID,-0.0169808,VALID,18.9951,VALID,20,VALID,0.622768,
2005-06-14, 02:36:00,VALID,916.383,VALID,0,VALID,99.9265,VALID,-0.0509425,VALID,19.0048,VALID,20,VALID,0.398056,
2005-06-14, 02:37:01,VALID,916.354,VALID,0,VALID,99.8248,VALID,-0.0169808,VALID,19.0274,VALID,37,VALID,0.630716,
2005-06-14, 02:38:01,VALID,916.331,VALID,0,VALID,99.6862,VALID,-0.0339617,VALID,19.0309,VALID,47,VALID,1.06101,
2005-06-14, 02:39:01,VALID,916.31,VALID,0,VALID,99.5577,VALID,-0.0339617,VALID,19.0403,VALID,56,VALID,1.14044,
2005-06-14, 02:40:01,VALID,916.296,VALID,0,VALID,99.4064,VALID,-0.0339617,VALID,19.0408,VALID,46,VALID,1.35265,
2005-06-14, 02:41:01,VALID,916.277,VALID,0,VALID,99.2932,VALID,-0.0339617,VALID,19.0306,VALID,37,VALID,1.17359,
2005-06-14, 02:42:01,VALID,916.281,VALID,0,VALID,99.1864,VALID,-0.0679233,VALID,19.041,VALID,33,VALID,1.01543,
2005-06-14, 02:43:01,VALID,916.278,VALID,0,VALID,99.1178,VALID,-0.0679233,VALID,19.0408,VALID,34,VALID,0.882813,
2005-06-14, 02:44:01,VALID,916.268,VALID,0,VALID,99.1318,VALID,0,VALID,19.0371,VALID,34,VALID,0.760121,
2005-06-14, 02:45:01,VALID,916.264,VALID,0,VALID,99.1178,VALID,-0.0169808,VALID,19.0371,VALID,34,VALID,0.589935,
2005-06-14, 02:46:00,VALID,916.241,VALID,0,VALID,99.2042,VALID,0.0169808,VALID,19.0525,VALID,34,VALID,0.456659,
2005-06-14, 02:47:01,VALID,916.242,VALID,0,VALID,99.1775,VALID,0.0169808,VALID,19.0791,VALID,34,VALID,0.4375,
2005-06-14, 02:48:01,VALID,916.218,VALID,0,VALID,99.0911,VALID,0.0169808,VALID,19.0855,VALID,63,VALID,0.729861,
2005-06-14, 02:49:01,VALID,916.217,VALID,0,VALID,99.3517,VALID,0,VALID,19.0984,VALID,136,VALID,0.913517,
2005-06-14, 02:50:01,VALID,916.222,VALID,0,VALID,99.6989,VALID,0.0169808,VALID,19.0786,VALID,137,VALID,0.832889,
2005-06-14, 02:51:00,VALID,916.211,VALID,0,VALID,99.9512,VALID,0,VALID,19.0788,VALID,133,VALID,1.15116,
2005-06-14, 02:52:01,VALID,916.189,VALID,0,VALID,100,VALID,-0.0169808,VALID,19.0597,VALID,135,VALID,0.882465,
2005-06-14, 02:53:01,VALID,916.195,VALID,0,VALID,100,VALID,-0.0169808,VALID,19.0403,VALID,143,VALID,0.649503,
2005-06-14, 02:54:01,VALID,916.205,VALID,0,VALID,100,VALID,0,VALID,19.0202,VALID,143,VALID,0.511446,
2005-06-14, 02:55:01,VALID,916.195,VALID,0,VALID,100,VALID,0,VALID,19.0046,VALID,142,VALID,0.540968,
2005-06-14, 02:56:01,VALID,916.186,VALID,0,VALID,100,VALID,-0.0169808,VALID,19.0048,VALID,132,VALID,1.05822,
2005-06-14, 02:57:00,VALID,916.18,VALID,0,VALID,100,VALID,-0.0169808,VALID,19.0078,VALID,135,VALID,0.905185,
2005-06-14, 02:58:00,VALID,916.184,VALID,0,VALID,100,VALID,0,VALID,18.9949,VALID,130,VALID,0.687863,
2005-06-14, 02:59:01,VALID,916.185,VALID,0,VALID,100,VALID,0,VALID,18.9919,VALID,128,VALID,0.980569,
2005-06-14, 03:00:01,VALID,916.191,VALID,0,VALID,100,VALID,0,VALID,18.9852,VALID,131,VALID,1.11016,
2005-06-14, 03:01:00,VALID,916.191,VALID,0,VALID,100,VALID,0,VALID,18.9887,VALID,138,VALID,0.988621,
2005-06-14, 03:02:01,VALID,916.2,VALID,0,VALID,100,VALID,0.0169808,VALID,18.9986,VALID,135,VALID,0.773983,
2005-06-14, 03:03:01,VALID,916.215,VALID,0,VALID,100,VALID,-0.0169808,VALID,18.9852,VALID,124,VALID,0.566315,
2005-06-14, 03:04:01,VALID,916.214,VALID,0,VALID,100,VALID,0,VALID,18.979,VALID,127,VALID,0.591146,
2005-06-14, 03:05:00,VALID,916.208,VALID,0,VALID,100,VALID,0,VALID,18.9621,VALID,135,VALID,0.65767,
2005-06-14, 03:06:01,VALID,916.201,VALID,0,VALID,100,VALID,0,VALID,18.9591,VALID,142,VALID,0.819293,
2005-06-14, 03:07:01,VALID,916.192,VALID,0,VALID,100,VALID,0,VALID,18.9723,VALID,139,VALID,0.558008,
2005-06-14, 03:08:01,VALID,916.195,VALID,0,VALID,100,VALID,-0.0339617,VALID,18.9591,VALID,129,VALID,0.516158,
2005-06-14, 03:09:01,VALID,916.197,VALID,0,VALID,100,VALID,0,VALID,18.9492,VALID,129,VALID,0.451527,
2005-06-14, 03:10:01,VALID,916.189,VALID,0,VALID,100,VALID,0,VALID,18.9631,VALID,128,VALID,0.625178,
2005-06-14, 03:11:01,VALID,916.188,VALID,0,VALID,100,VALID,0,VALID,18.9728,VALID,129,VALID,0.712271,
2005-06-14, 03:12:01,VALID,916.161,VALID,0,VALID,100,VALID,0,VALID,18.9854,VALID,129,VALID,0.62779,
2005-06-14, 03:13:01,VALID,916.147,VALID,0,VALID,100,VALID,0,VALID,18.9753,VALID,119,VALID,0.609003,
2005-06-14, 03:14:01,VALID,916.143,VALID,0,VALID,100,VALID,0,VALID,18.9688,VALID,117,VALID,0.469283,
2005-06-14, 03:15:01,VALID,916.156,VALID,0,VALID,100,VALID,0,VALID,18.972,VALID,117,VALID,0.332217,
2005-06-14, 03:16:01,VALID,916.136,VALID,0,VALID,100,VALID,0,VALID,18.9624,VALID,117,VALID,0.512228,
2005-06-14, 03:17:01,VALID,916.13,VALID,0,VALID,100,VALID,0,VALID,18.9653,VALID,116,VALID,0.703726,
2005-06-14, 03:18:01,VALID,916.125,VALID,0,VALID,100,VALID,0,VALID,18.9884,VALID,113,VALID,0.599019,
2005-06-14, 03:19:01,VALID,916.132,VALID,0,VALID,100,VALID,0,VALID,18.9946,VALID,103,VALID,0.563565,
2005-06-14, 03:20:01,VALID,916.135,VALID,0,VALID,100,VALID,0,VALID,19.0147,VALID,83,VALID,0.389695,
2005-06-14, 03:21:01,VALID,916.146,VALID,0,VALID,100,VALID,-0.0339617,VALID,19.0306,VALID,83,VALID,0.0628551,
2005-06-14, 03:22:01,VALID,916.159,VALID,0,VALID,100,VALID,0,VALID,19.0403,VALID,83,VALID,0,
2005-06-14, 03:23:01,VALID,916.168,VALID,0,VALID,100,VALID,-0.0169808,VALID,19.0239,VALID,83,VALID,0,
2005-06-14, 03:24:01,VALID,916.175,VALID,0,VALID,100,VALID,0,VALID,19.0242,VALID,83,VALID,0,
2005-06-14, 03:25:01,VALID,916.182,VALID,0,VALID,100,VALID,0,VALID,19.0304,VALID,83,VALID,0,
2005-06-14, 03:26:01,VALID,916.179,VALID,0,VALID,100,VALID,0,VALID,19.0304,VALID,83,VALID,0.00628811,
2005-06-14, 03:27:01,VALID,916.177,VALID,0,VALID,100,VALID,0,VALID,19.011,VALID,83,VALID,0.492914,
2005-06-14, 03:28:00,VALID,916.161,VALID,0,VALID,100,VALID,0,VALID,18.9951,VALID,79,VALID,0.803977,
2005-06-14, 03:29:00,VALID,916.171,VALID,0,VALID,100,VALID,0.0169808,VALID,18.9983,VALID,75,VALID,0.788035,
2005-06-14, 03:30:00,VALID,916.17,VALID,0,VALID,100,VALID,0.0169808,VALID,18.9755,VALID,75,VALID,0.664757,
2005-06-14, 03:31:00,VALID,916.156,VALID,0,VALID,99.9919,VALID,-0.0169808,VALID,18.9594,VALID,75,VALID,0.778054,
2005-06-14, 03:32:00,VALID,916.159,VALID,0,VALID,100,VALID,0,VALID,18.9494,VALID,75,VALID,0.96224,
2005-06-14, 03:33:00,VALID,916.156,VALID,0,VALID,99.9888,VALID,0,VALID,18.9591,VALID,75,VALID,0.701079,
2005-06-14, 03:34:00,VALID,916.152,VALID,0,VALID,99.8235,VALID,0,VALID,18.9624,VALID,75,VALID,0.453125,
2005-06-14, 03:35:00,VALID,916.167,VALID,0,VALID,99.7943,VALID,0,VALID,18.9628,VALID,75,VALID,0.0435547,